Вернуться в каталог

IRIDIUM 133

АктивенСвязьPO
NORAD 42955·PAYLOAD·🇺🇸 United States

Запущен Oct 9, 2017 с Vandenberg Space Force Base

Loading…

Ближайшие Пролёты (ближайшие 24 часа)

TLE

СвежийSource: CelesTrak SupGP

Эпоха: Sep 14, 2026, 08:15 UTC

1 42955C 17061A   26257.34409722 -.00005105  00000+0 -18254-2 0  2574
2 42955  86.4030 348.0137 0002167  96.3807 309.3419 14.34223976    14

Отслеживайте IRIDIUM 133 в реальном времени с AllMySat

Download on the App Store